QPF
0.00 0.00 0.00 0.00 0.00 0.00 0.00 0.00 0.00 0.00 0.00 0.00 0.00 0.00 0.00 0.00 0.00 0.00 0.00 0.00 0.00 0.00 0.00 0.00 0.00 0.00 0.00 0.00 0.00 0.00 0.00 0.00 0.00 0.00 0.00 0.00 0.00 0.00 0.00 0.00 0.00 0.00 0.00
0.00 0.00 0.00 0.00 0.00 0.00 0.00 0.00 0.00 0.00 0.00 0.00 0.00 0.00 0.00 0.00 0.00 0.00 0.00 0.00 0.00 0.00 0.00 0.00 0.00 0.00 0.00 0.00 0.00 0.00 0.00 0.00 0.00 0.00 0.00 0.00 0.00 0.00 0.00 0.00 0.00 0.00 0.00
0.00 0.00 0.00 0.00 0.00 0.00 0.00 0.00 0.00 0.00 0.00 0.00 0.00 0.00 0.00 0.00 0.00 0.00 0.00 0.00 0.00 0.00 0.00 0.00 0.00 0.00 0.00 0.00 0.00 0.00 0.00 0.00 0.00 0.00 0.00 0.00 0.00 0.00 0.00 0.00 0.00 0.00 0.00
0.00 0.00 0.00 0.00 0.00 0.00 0.00 0.00 0.00 0.00 0.00 0.00 0.00 0.00 0.00 0.00 0.00 0.00 0.00 0.00 0.00 0.00 0.00 0.00 0.00 0.00 0.00 0.00 0.00 0.00 0.00 0.00 0.00 0.00 0.00 0.00 0.00 0.00 0.00 0.00 0.00 0.00 0.00
0.00 0.00 0.00 0.00 0.00 0.00 0.00 0.00 0.00 0.00 0.00 0.00 0.00 0.00 0.00 0.00 0.00 0.00 0.00 0.00 0.00 0.00 0.00 0.00 0.00 0.00 0.00 0.00 0.00 0.00 0.00 0.00 0.00 0.00 0.00 0.00 0.00 0.00 0.00 0.00 0.00 0.00 0.00
0.00 0.00 0.00 0.00 0.00 0.00 0.00 0.00 0.00 0.00 0.00 0.00 0.00 0.00 0.00 0.00 0.00 0.00 0.00 0.00 0.00 0.00 0.00 0.00 0.00 0.00 0.00 0.00 0.00 0.00 0.00 0.00 0.00 0.00 0.00 0.00 0.00 0.01 0.01 0.00 0.00 0.00 0.00
0.01 0.01 0.01 0.01 0.00 0.00 0.00 0.00 0.00 0.00 0.00 0.00 0.00 0.00 0.00 0.00 0.00 0.00 0.00 0.00 0.00 0.00 0.00 0.00 0.00 0.00 0.00 0.00 0.00 0.00 0.00 0.00 0.00 0.00 0.00 0.00 0.00 0.01 0.02 0.01 0.02 0.02 0.01
0.02 0.02 0.02 0.01 0.01 0.00 0.00 0.00 0.00 0.00 0.00 0.00 0.00 0.00 0.00 0.00 0.00 0.00 0.00 0.00 0.00 0.00 0.00 0.00 0.00 0.00 0.00 0.00 0.00 0.00 0.00 0.00 0.00 0.00 0.00 0.00 0.01 0.01 0.02 0.02 0.02 0.02 0.01
0.02 0.03 0.03 0.02 0.02 0.01 0.00 0.00 0.00 0.00 0.00 0.00 0.00 0.00 0.00 0.01 0.01 0.01 0.01 0.00 0.00 0.00 0.00 0.00 0.00 0.00 0.00 0.00 0.00 0.00 0.00 0.00 0.00 0.00 0.00 0.00 0.00 0.00 0.01 0.01 0.01 0.01 0.01
0.03 0.03 0.03 0.03 0.02 0.02 0.01 0.01 0.01 0.01 0.01 0.01 0.01 0.01 0.01 0.01 0.01 0.01 0.02 0.01 0.01 0.01 0.01 0.01 0.00 0.00 0.01 0.01 0.00 0.01 0.01 0.01 0.01 0.01 0.01 0.00 0.00 0.00 0.00 0.00 0.01 0.02 0.01
0.04 0.04 0.03 0.02 0.02 0.02 0.01 0.01 0.01 0.01 0.01 0.01 0.01 0.01 0.01 0.01 0.01 0.01 0.02 0.01 0.01 0.01 0.01 0.01 0.01 0.01 0.01 0.01 0.00 0.00 0.00 0.01 0.02 0.02 0.02 0.01 0.01 0.01 0.01 0.01 0.01 0.01 0.02
0.04 0.03 0.03 0.02 0.02 0.02 0.02 0.02 0.02 0.02 0.01 0.01 0.01 0.01 0.01 0.01 0.01 0.01 0.02 0.02 0.01 0.01 0.01 0.01 0.01 0.02 0.01 0.01 0.00 0.00 0.00 0.00 0.01 0.01 0.01 0.01 0.01 0.00 0.01 0.01 0.02 0.02 0.02
0.03 0.03 0.03 0.03 0.03 0.02 0.02 0.02 0.02 0.02 0.02 0.02 0.01 0.01 0.01 0.01 0.01 0.02 0.02 0.03 0.02 0.02 0.01 0.01 0.01 0.01 0.01 0.01 0.00 0.00 0.00 0.00 0.00 0.01 0.01 0.01 0.00 0.00 0.01 0.02 0.02 0.02 0.01
0.03 0.03 0.03 0.02 0.02 0.02 0.02 0.02 0.02 0.03 0.02 0.01 0.01 0.01 0.01 0.01 0.02 0.02 0.02 0.02 0.03 0.03 0.02 0.02 0.01 0.01 0.01 0.01 0.01 0.01 0.01 0.01 0.01 0.02 0.02 0.01 0.01 0.01 0.01 0.01 0.01 0.02 0.02
0.01 0.01 0.01 0.01 0.01 0.01 0.01 0.01 0.01 0.01 0.01 0.01 0.01 0.01 0.01 0.01 0.01 0.01 0.01 0.01 0.02 0.02 0.02 0.02 0.02 0.02 0.02 0.03 0.03 0.04 0.04 0.04 0.04 0.03 0.03 0.03 0.02 0.02 0.02 0.02 0.02 0.01 0.01
0.01 0.01 0.00 0.00 0.00 0.00 0.00 0.00 0.00 0.00 0.00 0.00 0.01 0.00 0.00 0.00 0.01 0.01 0.01 0.01 0.01 0.01 0.01 0.02 0.02 0.03 0.04 0.05 0.07 0.07 0.08 0.07 0.07 0.06 0.05 0.05 0.05 0.04 0.03 0.02 0.02 0.02 0.01
0.00 0.00 0.00 0.00 0.00 0.00 0.00 0.00 0.00 0.00 0.00 0.00 0.00 0.00 0.00 0.00 0.00 0.00 0.00 0.00 0.00 0.00 0.01 0.01 0.02 0.03 0.04 0.05 0.06 0.07 0.08 0.08 0.09 0.09 0.08 0.07 0.06 0.05 0.05 0.04 0.03 0.02 0.01
0.00 0.00 0.00 0.00 0.00 0.00 0.00 0.00 0.00 0.00 0.00 0.00 0.00 0.00 0.00 0.00 0.00 0.00 0.00 0.00 0.00 0.00 0.01 0.01 0.02 0.03 0.05 0.05 0.06 0.07 0.08 0.09 0.10 0.10 0.09 0.08 0.07 0.06 0.05 0.04 0.04 0.04 0.04
0.00 0.00 0.00 0.00 0.00 0.00 0.00 0.00 0.00 0.00 0.00 0.00 0.00 0.00 0.00 0.00 0.00 0.00 0.00 0.00 0.01 0.01 0.02 0.02 0.03 0.04 0.05 0.06 0.07 0.08 0.09 0.09 0.09 0.10 0.10 0.10 0.10 0.09 0.07 0.05 0.05 0.05 0.04
0.00 0.00 0.00 0.00 0.00 0.00 0.00 0.00 0.00 0.00 0.00 0.00 0.00 0.00 0.00 0.00 0.00 0.01 0.01 0.01 0.02 0.02 0.03 0.03 0.05 0.07 0.07 0.08 0.09 0.09 0.09 0.09 0.09 0.10 0.10 0.10 0.10 0.09 0.08 0.06 0.06 0.07 0.06
0.00 0.00 0.00 0.00 0.00 0.00 0.00 0.00 0.00 0.00 0.00 0.00 0.00 0.00 0.00 0.00 0.01 0.02 0.02 0.02 0.03 0.04 0.05 0.05 0.06 0.08 0.10 0.11 0.11 0.10 0.10 0.09 0.09 0.10 0.11 0.11 0.11 0.11 0.10 0.09 0.08 0.07 0.07
0.00 0.00 0.00 0.00 0.00 0.00 0.00 0.00 0.00 0.00 0.00 0.01 0.01 0.01 0.01 0.02 0.02 0.02 0.02 0.03 0.03 0.04 0.05 0.07 0.09 0.10 0.12 0.14 0.13 0.12 0.12 0.11 0.11 0.12 0.11 0.12 0.12 0.12 0.11 0.09 0.08 0.07 0.07
0.00 0.00 0.00 0.00 0.00 0.00 0.00 0.00 0.00 0.01 0.01 0.01 0.01 0.02 0.02 0.03 0.03 0.03 0.03 0.04 0.05 0.07 0.08 0.10 0.13 0.14 0.16 0.17 0.16 0.15 0.14 0.14 0.14 0.13 0.13 0.13 0.13 0.12 0.11 0.09 0.08 0.08 0.08
0.00 0.00 0.00 0.00 0.00 0.00 0.00 0.00 0.01 0.01 0.01 0.01 0.02 0.02 0.03 0.03 0.03 0.03 0.03 0.04 0.06 0.07 0.08 0.11 0.14 0.17 0.18 0.19 0.18 0.16 0.14 0.14 0.12 0.11 0.11 0.12 0.10 0.09 0.08 0.08 0.07 0.07 0.08
0.00 0.00 0.00 0.00 0.00 0.00 0.00 0.01 0.01 0.01 0.02 0.03 0.02 0.02 0.02 0.03 0.03 0.04 0.05 0.06 0.06 0.07 0.08 0.09 0.11 0.12 0.14 0.12 0.11 0.10 0.10 0.09 0.08 0.07 0.07 0.07 0.07 0.06 0.05 0.05 0.05 0.05 0.06
0.00 0.00 0.00 0.00 0.00 0.00 0.01 0.01 0.02 0.03 0.03 0.03 0.03 0.03 0.03 0.03 0.04 0.05 0.06 0.07 0.07 0.07 0.08 0.09 0.08 0.08 0.08 0.08 0.08 0.08 0.07 0.06 0.05 0.05 0.04 0.04 0.04 0.05 0.04 0.04 0.04 0.05 0.05
MSLP
1014.64 1015.07 1015.48 1015.86 1016.19 1016.48 1016.74 1016.98 1017.22 1017.46 1017.71 1017.96 1018.22 1018.46 1018.68 1018.87 1019.03 1019.15 1019.25 1019.33 1019.38 1019.42 1019.45 1019.45 1019.43 1019.38 1019.31 1019.20 1019.07 1018.92 1018.76 1018.60 1018.43 1018.27 1018.11 1017.96 1017.83 1017.69 1017.57 1017.46 1017.36 1017.28 1017.22
1013.97 1014.41 1014.82 1015.22 1015.59 1015.94 1016.26 1016.57 1016.88 1017.18 1017.47 1017.75 1018.02 1018.25 1018.46 1018.63 1018.77 1018.88 1018.96 1019.03 1019.09 1019.13 1019.17 1019.19 1019.19 1019.16 1019.10 1019.02 1018.91 1018.77 1018.62 1018.46 1018.29 1018.12 1017.95 1017.79 1017.62 1017.46 1017.31 1017.16 1017.03 1016.92 1016.83
1013.30 1013.73 1014.16 1014.57 1014.98 1015.36 1015.75 1016.12 1016.48 1016.83 1017.17 1017.48 1017.76 1017.99 1018.19 1018.34 1018.46 1018.55 1018.62 1018.68 1018.74 1018.79 1018.84 1018.87 1018.89 1018.89 1018.86 1018.80 1018.71 1018.60 1018.46 1018.31 1018.15 1017.98 1017.80 1017.62 1017.43 1017.24 1017.05 1016.87 1016.70 1016.55 1016.42
1012.65 1013.08 1013.50 1013.92 1014.34 1014.76 1015.17 1015.59 1015.99 1016.38 1016.75 1017.09 1017.38 1017.62 1017.81 1017.95 1018.06 1018.14 1018.20 1018.26 1018.31 1018.37 1018.43 1018.49 1018.53 1018.56 1018.56 1018.53 1018.47 1018.38 1018.27 1018.14 1017.99 1017.83 1017.65 1017.46 1017.25 1017.04 1016.83 1016.61 1016.40 1016.20 1016.02
1012.06 1012.47 1012.88 1013.29 1013.70 1014.12 1014.54 1014.96 1015.39 1015.80 1016.19 1016.54 1016.84 1017.09 1017.29 1017.43 1017.54 1017.62 1017.68 1017.74 1017.80 1017.87 1017.95 1018.02 1018.09 1018.14 1018.17 1018.17 1018.14 1018.09 1018.00 1017.90 1017.77 1017.62 1017.45 1017.27 1017.06 1016.84 1016.61 1016.37 1016.13 1015.89 1015.66
1011.57 1011.96 1012.33 1012.71 1013.08 1013.47 1013.87 1014.28 1014.69 1015.10 1015.49 1015.85 1016.16 1016.42 1016.63 1016.79 1016.91 1017.00 1017.07 1017.14 1017.21 1017.29 1017.38 1017.47 1017.55 1017.62 1017.68 1017.71 1017.71 1017.68 1017.63 1017.55 1017.45 1017.33 1017.18 1017.01 1016.81 1016.60 1016.37 1016.12 1015.86 1015.59 1015.32
1011.23 1011.57 1011.89 1012.21 1012.53 1012.86 1013.21 1013.58 1013.96 1014.34 1014.72 1015.07 1015.39 1015.66 1015.89 1016.07 1016.21 1016.32 1016.41 1016.49 1016.57 1016.65 1016.74 1016.84 1016.93 1017.01 1017.08 1017.12 1017.15 1017.15 1017.12 1017.07 1016.99 1016.89 1016.77 1016.62 1016.45 1016.26 1016.04 1015.80 1015.54 1015.26 1014.97
1011.09 1011.37 1011.63 1011.88 1012.12 1012.38 1012.66 1012.96 1013.28 1013.62 1013.96 1014.30 1014.61 1014.90 1015.14 1015.34 1015.50 1015.63 1015.74 1015.83 1015.91 1016.00 1016.08 1016.16 1016.24 1016.32 1016.38 1016.42 1016.45 1016.46 1016.45 1016.41 1016.36 1016.28 1016.18 1016.06 1015.92 1015.75 1015.57 1015.36 1015.12 1014.85 1014.56
1011.17 1011.39 1011.58 1011.76 1011.92 1012.09 1012.28 1012.50 1012.75 1013.03 1013.33 1013.64 1013.94 1014.22 1014.48 1014.70 1014.88 1015.02 1015.14 1015.23 1015.30 1015.36 1015.42 1015.47 1015.52 1015.56 1015.59 1015.62 1015.63 1015.63 1015.61 1015.58 1015.53 1015.46 1015.38 1015.28 1015.17 1015.04 1014.89 1014.72 1014.53 1014.30 1014.05
1011.48 1011.64 1011.77 1011.87 1011.95 1012.03 1012.13 1012.26 1012.43 1012.64 1012.89 1013.16 1013.43 1013.71 1013.96 1014.19 1014.38 1014.52 1014.63 1014.71 1014.75 1014.78 1014.79 1014.78 1014.77 1014.76 1014.74 1014.72 1014.69 1014.66 1014.62 1014.57 1014.51 1014.44 1014.36 1014.28 1014.19 1014.10 1013.99 1013.87 1013.74 1013.58 1013.38
1011.99 1012.10 1012.17 1012.20 1012.20 1012.20 1012.21 1012.25 1012.34 1012.47 1012.65 1012.87 1013.11 1013.37 1013.61 1013.83 1014.01 1014.15 1014.24 1014.28 1014.29 1014.25 1014.19 1014.11 1014.02 1013.92 1013.83 1013.74 1013.65 1013.56 1013.48 1013.40 1013.32 1013.24 1013.16 1013.08 1013.01 1012.95 1012.89 1012.82 1012.75 1012.67 1012.55
1012.62 1012.69 1012.70 1012.67 1012.60 1012.52 1012.45 1012.40 1012.41 1012.46 1012.58 1012.74 1012.94 1013.16 1013.38 1013.59 1013.75 1013.87 1013.92 1013.92 1013.86 1013.75 1013.61 1013.43 1013.24 1013.05 1012.86 1012.68 1012.52 1012.37 1012.23 1012.11 1012.00 1011.90 1011.81 1011.74 1011.68 1011.64 1011.62 1011.61 1011.60 1011.59 1011.57
1013.29 1013.32 1013.28 1013.19 1013.06 1012.90 1012.75 1012.63 1012.55 1012.53 1012.58 1012.68 1012.84 1013.02 1013.21 1013.38 1013.52 1013.60 1013.61 1013.56 1013.43 1013.24 1012.99 1012.72 1012.42 1012.12 1011.83 1011.56 1011.31 1011.09 1010.90 1010.74 1010.59 1010.48 1010.38 1010.31 1010.27 1010.25 1010.26 1010.30 1010.35 1010.41 1010.46
1013.88 1013.87 1013.79 1013.64 1013.45 1013.23 1013.01 1012.81 1012.66 1012.57 1012.55 1012.60 1012.70 1012.84 1012.99 1013.13 1013.23 1013.27 1013.24 1013.12 1012.92 1012.64 1012.30 1011.92 1011.52 1011.11 1010.73 1010.37 1010.05 1009.77 1009.53 1009.33 1009.17 1009.05 1008.95 1008.89 1008.86 1008.87 1008.91 1008.98 1009.08 1009.19 1009.30
1014.31 1014.26 1014.13 1013.93 1013.68 1013.41 1013.13 1012.87 1012.66 1012.51 1012.43 1012.42 1012.47 1012.57 1012.68 1012.77 1012.83 1012.82 1012.73 1012.55 1012.27 1011.91 1011.49 1011.02 1010.52 1010.03 1009.56 1009.13 1008.75 1008.43 1008.16 1007.95 1007.79 1007.67 1007.59 1007.55 1007.54 1007.57 1007.64 1007.73 1007.86 1008.00 1008.15
1014.53 1014.43 1014.26 1014.02 1013.72 1013.40 1013.08 1012.77 1012.51 1012.32 1012.19 1012.13 1012.13 1012.18 1012.24 1012.28 1012.29 1012.22 1012.07 1011.83 1011.48 1011.05 1010.55 1010.00 1009.43 1008.87 1008.34 1007.86 1007.45 1007.12 1006.85 1006.65 1006.51 1006.42 1006.37 1006.36 1006.38 1006.43 1006.51 1006.62 1006.75 1006.90 1007.06
1014.56 1014.41 1014.20 1013.92 1013.60 1013.26 1012.90 1012.57 1012.28 1012.05 1011.88 1011.78 1011.73 1011.72 1011.72 1011.70 1011.64 1011.51 1011.30 1010.98 1010.57 1010.07 1009.51 1008.90 1008.28 1007.68 1007.12 1006.63 1006.21 1005.89 1005.64 1005.48 1005.38 1005.33 1005.32 1005.35 1005.40 1005.48 1005.57 1005.67 1005.80 1005.93 1006.06
1014.45 1014.27 1014.03 1013.74 1013.41 1013.05 1012.70 1012.36 1012.06 1011.81 1011.61 1011.46 1011.36 1011.28 1011.21 1011.12 1010.98 1010.77 1010.47 1010.08 1009.60 1009.04 1008.42 1007.77 1007.12 1006.51 1005.95 1005.47 1005.08 1004.78 1004.58 1004.47 1004.42 1004.42 1004.47 1004.53 1004.62 1004.70 1004.79 1004.89 1004.98 1005.07 1005.16
1014.30 1014.09 1013.85 1013.56 1013.25 1012.91 1012.58 1012.26 1011.96 1011.70 1011.48 1011.29 1011.13 1010.98 1010.82 1010.63 1010.39 1010.07 1009.68 1009.21 1008.65 1008.03 1007.37 1006.70 1006.04 1005.42 1004.88 1004.44 1004.09 1003.85 1003.70 1003.64 1003.65 1003.71 1003.80 1003.90 1004.00 1004.09 1004.17 1004.24 1004.29 1004.33 1004.35
1014.21 1014.00 1013.77 1013.51 1013.23 1012.94 1012.65 1012.36 1012.09 1011.83 1011.59 1011.36 1011.13 1010.89 1010.62 1010.31 1009.95 1009.51 1009.01 1008.44 1007.80 1007.12 1006.42 1005.73 1005.08 1004.48 1003.98 1003.58 1003.29 1003.10 1003.02 1003.01 1003.07 1003.17 1003.29 1003.41 1003.52 1003.60 1003.65 1003.68 1003.68 1003.66 1003.62
1014.27 1014.07 1013.87 1013.65 1013.43 1013.19 1012.96 1012.72 1012.47 1012.22 1011.96 1011.68 1011.38 1011.03 1010.65 1010.21 1009.70 1009.14 1008.51 1007.82 1007.10 1006.36 1005.63 1004.93 1004.29 1003.73 1003.26 1002.92 1002.68 1002.56 1002.52 1002.56 1002.66 1002.78 1002.91 1003.04 1003.13 1003.19 1003.20 1003.19 1003.13 1003.05 1002.94
1014.52 1014.35 1014.18 1014.01 1013.84 1013.67 1013.50 1013.30 1013.09 1012.84 1012.56 1012.23 1011.84 1011.39 1010.88 1010.29 1009.65 1008.94 1008.18 1007.39 1006.58 1005.79 1005.02 1004.32 1003.69 1003.17 1002.75 1002.46 1002.28 1002.20 1002.21 1002.28 1002.39 1002.52 1002.64 1002.74 1002.80 1002.82 1002.79 1002.72 1002.61 1002.47 1002.30
1014.96 1014.81 1014.68 1014.56 1014.44 1014.32 1014.19 1014.04 1013.84 1013.59 1013.28 1012.90 1012.43 1011.87 1011.23 1010.52 1009.73 1008.90 1008.02 1007.13 1006.25 1005.40 1004.62 1003.91 1003.31 1002.82 1002.45 1002.20 1002.06 1002.02 1002.05 1002.13 1002.24 1002.35 1002.44 1002.50 1002.52 1002.49 1002.41 1002.28 1002.12 1001.93 1001.71
1015.55 1015.41 1015.30 1015.20 1015.12 1015.03 1014.93 1014.79 1014.60 1014.34 1013.99 1013.55 1013.01 1012.36 1011.62 1010.79 1009.89 1008.95 1007.98 1007.01 1006.07 1005.20 1004.40 1003.71 1003.13 1002.68 1002.34 1002.13 1002.02 1001.99 1002.03 1002.10 1002.18 1002.25 1002.30 1002.31 1002.27 1002.18 1002.05 1001.87 1001.66 1001.43 1001.18
1016.21 1016.07 1015.96 1015.86 1015.78 1015.70 1015.59 1015.45 1015.25 1014.96 1014.58 1014.09 1013.48 1012.77 1011.94 1011.04 1010.06 1009.04 1008.02 1007.01 1006.05 1005.16 1004.37 1003.70 1003.14 1002.72 1002.41 1002.22 1002.13 1002.10 1002.11 1002.15 1002.19 1002.22 1002.21 1002.15 1002.05 1001.90 1001.72 1001.50 1001.25 1000.99 1000.72
1016.87 1016.72 1016.58 1016.46 1016.35 1016.24 1016.11 1015.93 1015.70 1015.38 1014.96 1014.44 1013.79 1013.03 1012.17 1011.22 1010.21 1009.17 1008.13 1007.11 1006.16 1005.29 1004.52 1003.87 1003.35 1002.95 1002.66 1002.48 1002.37 1002.32 1002.30 1002.30 1002.28 1002.24 1002.16 1002.04 1001.87 1001.67 1001.43 1001.17 1000.90 1000.61 1000.32
Thickness
5738 5736 5734 5732 5729 5726 5723 5720 5717 5715 5711 5708 5705 5703 5700 5697 5694 5690 5690 5688 5684 5682 5680 5678 5674 5672 5673 5673 5671 5669 5667 5664 5661 5665 5667 5667 5660 5657 5659 5658 5659 5659 5662
5741 5738 5735 5732 5729 5726 5723 5720 5716 5713 5710 5707 5704 5701 5698 5696 5693 5689 5686 5686 5682 5680 5678 5675 5672 5672 5668 5666 5665 5664 5663 5660 5656 5655 5658 5659 5658 5655 5653 5652 5654 5657 5656
5744 5739 5735 5732 5729 5726 5723 5719 5715 5711 5708 5706 5702 5698 5696 5694 5691 5687 5685 5682 5680 5678 5675 5672 5670 5667 5664 5663 5659 5659 5659 5658 5655 5653 5653 5654 5653 5653 5650 5649 5650 5649 5649
5745 5740 5736 5733 5730 5726 5723 5718 5714 5710 5706 5703 5700 5697 5694 5691 5688 5685 5682 5679 5677 5675 5672 5670 5667 5664 5661 5658 5656 5653 5652 5650 5650 5648 5649 5650 5648 5648 5644 5643 5645 5647 5646
5744 5740 5737 5733 5730 5725 5721 5716 5712 5708 5705 5701 5697 5694 5692 5689 5687 5684 5680 5677 5674 5671 5669 5667 5665 5661 5658 5654 5653 5652 5648 5645 5646 5646 5645 5645 5644 5641 5640 5641 5640 5639 5640
5741 5739 5736 5731 5727 5722 5718 5714 5709 5705 5701 5698 5694 5692 5689 5689 5686 5679 5675 5674 5672 5669 5666 5664 5662 5658 5653 5647 5644 5641 5639 5638 5639 5638 5639 5638 5635 5635 5633 5631 5631 5631 5631
5736 5734 5731 5727 5723 5718 5715 5710 5705 5701 5698 5694 5691 5689 5687 5685 5680 5674 5667 5666 5667 5666 5663 5660 5659 5661 5653 5649 5643 5636 5633 5629 5627 5627 5630 5629 5629 5628 5624 5623 5622 5621 5620
5729 5727 5725 5721 5717 5713 5709 5705 5701 5698 5695 5691 5688 5686 5684 5682 5675 5669 5663 5659 5661 5661 5659 5657 5655 5653 5651 5646 5643 5640 5637 5633 5628 5622 5622 5623 5621 5619 5617 5614 5613 5613 5614
5720 5718 5717 5713 5709 5705 5702 5698 5695 5692 5689 5686 5684 5682 5679 5677 5671 5665 5657 5657 5657 5657 5656 5655 5652 5649 5646 5638 5634 5633 5632 5631 5628 5624 5621 5618 5614 5610 5607 5606 5608 5608 5611
5709 5708 5706 5703 5700 5696 5693 5691 5688 5685 5682 5680 5678 5676 5673 5671 5666 5659 5651 5651 5653 5653 5653 5651 5647 5644 5641 5633 5628 5627 5626 5626 5624 5623 5616 5612 5609 5606 5601 5598 5601 5603 5605
5697 5696 5693 5690 5687 5685 5683 5680 5677 5675 5673 5671 5669 5669 5666 5663 5659 5652 5645 5644 5647 5647 5648 5648 5648 5642 5633 5626 5621 5622 5622 5619 5618 5616 5614 5613 5610 5608 5605 5601 5598 5597 5599
5681 5680 5678 5676 5675 5675 5672 5669 5666 5664 5662 5660 5659 5658 5658 5656 5651 5646 5639 5634 5632 5634 5636 5639 5639 5632 5625 5619 5614 5613 5610 5605 5607 5609 5610 5611 5610 5608 5607 5604 5600 5596 5594
5667 5666 5664 5664 5662 5661 5659 5658 5656 5654 5653 5651 5649 5648 5646 5645 5643 5636 5630 5625 5620 5618 5623 5624 5620 5616 5611 5609 5606 5603 5598 5597 5600 5602 5604 5606 5607 5606 5602 5598 5594 5591 5588
5655 5654 5652 5651 5650 5648 5647 5647 5646 5644 5641 5638 5636 5635 5634 5632 5629 5626 5622 5617 5611 5607 5608 5609 5605 5602 5599 5599 5599 5596 5593 5595 5597 5597 5599 5600 5600 5599 5595 5592 5589 5588 5585
5643 5642 5642 5641 5640 5636 5636 5633 5632 5628 5625 5620 5620 5618 5616 5615 5611 5600 5597 5598 5596 5594 5589 5591 5593 5595 5596 5596 5596 5595 5594 5592 5589 5589 5590 5590 5590 5590 5588 5586 5583 5581 5580
5632 5631 5632 5631 5628 5627 5625 5623 5619 5614 5609 5604 5599 5596 5597 5593 5587 5583 5579 5575 5572 5568 5567 5577 5581 5583 5585 5586 5586 5586 5585 5583 5581 5581 5580 5581 5581 5580 5580 5579 5577 5574 5573
5618 5617 5617 5616 5615 5613 5611 5609 5607 5604 5598 5593 5588 5582 5577 5573 5569 5566 5563 5560 5557 5552 5556 5565 5568 5570 5571 5571 5572 5572 5573 5573 5571 5570 5570 5571 5572 5572 5571 5570 5569 5568 5567
5606 5605 5603 5602 5600 5599 5597 5595 5592 5590 5587 5584 5578 5570 5564 5559 5554 5550 5546 5543 5550 5549 5551 5552 5553 5554 5555 5555 5556 5558 5559 5559 5558 5557 5557 5558 5560 5561 5561 5562 5563 5562 5561
5594 5593 5588 5586 5586 5585 5583 5580 5577 5573 5569 5566 5563 5558 5550 5544 5539 5536 5531 5533 5536 5535 5535 5535 5535 5536 5536 5537 5539 5540 5541 5543 5544 5545 5546 5548 5550 5551 5552 5554 5555 5554 5552
5582 5575 5571 5571 5571 5569 5566 5562 5558 5554 5550 5546 5542 5538 5532 5528 5527 5525 5520 5518 5516 5515 5514 5514 5515 5516 5517 5519 5521 5523 5525 5528 5530 5532 5535 5538 5540 5542 5544 5545 5547 5548 5549
5568 5565 5558 5557 5555 5550 5545 5541 5537 5533 5529 5525 5521 5516 5505 5506 5506 5505 5502 5500 5498 5497 5496 5496 5498 5500 5503 5504 5507 5511 5514 5517 5520 5522 5524 5527 5530 5533 5535 5538 5540 5542 5544
5551 5549 5544 5540 5535 5530 5524 5521 5518 5514 5510 5505 5502 5499 5492 5490 5489 5486 5484 5483 5482 5482 5482 5482 5484 5487 5490 5493 5497 5502 5505 5508 5511 5514 5516 5519 5522 5525 5528 5530 5533 5535 5537
5534 5531 5527 5522 5517 5510 5508 5505 5500 5495 5491 5488 5484 5482 5480 5477 5475 5473 5472 5471 5471 5471 5472 5472 5474 5477 5481 5485 5489 5492 5496 5500 5503 5507 5509 5512 5515 5518 5521 5523 5526 5529 5531
5517 5513 5509 5504 5499 5495 5490 5486 5481 5478 5474 5471 5469 5467 5465 5462 5461 5460 5460 5461 5461 5462 5463 5465 5468 5471 5474 5477 5481 5485 5488 5490 5494 5499 5502 5506 5509 5512 5515 5518 5521 5525 5526
5502 5496 5491 5487 5482 5478 5474 5470 5466 5463 5460 5458 5457 5455 5453 5452 5451 5451 5452 5452 5453 5455 5458 5461 5464 5467 5470 5473 5476 5479 5480 5481 5484 5488 5493 5499 5503 5507 5510 5513 5516 5518 5520
5485 5479 5475 5471 5468 5463 5459 5455 5453 5450 5449 5448 5446 5444 5443 5443 5443 5444 5444 5446 5448 5452 5455 5459 5462 5465 5468 5471 5474 5475 5476 5478 5480 5482 5486 5493 5498 5502 5505 5507 5510 5512 5514